Regional Weather Roundup
Issued by NWS

Home | Current Version | Previous Version | Text Only | Print | Product List | Glossary Off
Versions: 1 2 3 4 5 6 7 8 9 10 11 12 13 14 15 16 17 18 19 20 21 22 23 24 25 26 27 28 29 30 31 32 33 34 35 36 37 38 39 40 41 42 43 44 45 46 47 48 49 50

000
ASUS43 KMPX 171801
RWRMN
WEATHER ROUNDUP FOR MINNESOTA
NATIONAL WEATHER SERVICE TWIN CITIES/CHANHASSEN MN
100 PM CDT THU APR 17 2014


NOTE: "FAIR" INDICATES FEW OR NO CLOUDS BELOW 12,000 FEET WITH NO
SIGNIFICANT WEATHER AND/OR OBSTRUCTIONS TO VISIBILITY. N/A MEANS
CURRENT SKY AND/OR WEATHER CONDITIONS ARE NOT AVAILABLE.

MNZ060>063-068>070-171900-
   Twin Cities Metro

CITY           SKY/WX    TMP DP  RH WIND       PRES   REMARKS
TWIN CITIES    CLOUDY    35  28  75 N7        30.27S WCI  29
6HR MIN TEMP:  29; 6HR MAX TEMP:  35;

ST PAUL        CLOUDY    35  28  75 NW10      30.28S WCI  27
CRYSTAL        CLOUDY    35  24  64 NW9       30.26S WCI  28
BLAINE         CLOUDY    37  28  70 N9        30.26
EDEN PRAIRIE   CLOUDY    35  26  69 NW6       30.26F WCI  30
6HR MIN TEMP:  29; 6HR MAX TEMP:  35;

LAKEVILLE      CLOUDY    32  27  80 NW7       30.26S WCI  26
SOUTH ST PAUL  CLOUDY    37  31  77 NW8       30.27S
LAKE ELMO      CLOUDY    34  32  93 NW7       30.26F WCI  28
$$
MNZ001>005-007-008-013>017-022>024-027-028-171900-
   Northwest Minnesota

CITY           SKY/WX    TMP DP  RH WIND       PRES   REMARKS
BEMIDJI        SUNNY     38   5  24 NW12      30.26F
HALLOCK        CLOUDY    37   7  28 N6        30.35F
ROSEAU         SUNNY     37   1  22 NE6       30.32F
WARROAD        SUNNY     34   9  35 E6        30.33F WCI  29
THIEF RVR FALL SUNNY     37   7  28 CALM      30.32F
CROOKSTON      SUNNY     37  10  32 NW8       30.34F
FOSSTON        SUNNY     39  10  30 CALM      30.30F
DETROIT LAKES  SUNNY     37  10  32 N7G16     30.28F
MOORHEAD       SUNNY     37  12  35 N5        30.33F
PARK RAPIDS    SUNNY     39   5  24 N7G17     30.24F
$$
MNZ006-009>011-018-025>026-171900-
   North Central Minnesota

CITY           SKY/WX    TMP DP  RH WIND       PRES   REMARKS
BAUDETTE       SUNNY     37  13  37 N9G20     30.30F
FLAG ISLAND    SUNNY     32  10  40 N8        30.32F WCI  25
INTL FALLS     PTSUNNY   36  20  52 NE9       30.28F
6HR MIN TEMP:  21; 6HR MAX TEMP:  36;

WASKISH        MOSUNNY   41  18  38 N5        30.28S
BIG FORK       MOSUNNY   37  19  48 N8G21     30.26S
LONGVILLE      SUNNY     39  19  45 N7G17     30.24F
GRAND RAPIDS   PTSUNNY   36  19  51 N15       30.23F
CRANE LAKE     CLOUDY    30  25  80 N6        30.28S WCI  24
ORR            CLOUDY    32  19  59 N3        30.23F
COOK           CLOUDY    32  21  64 NW7       30.24F WCI  26
$$
MNZ012-019>021-037-171900-
   Northeast Minnesota

CITY           SKY/WX    TMP DP  RH WIND       PRES   REMARKS
DULUTH         CLOUDY    34  23  64 N10       30.20S WCI  26
6HR MIN TEMP:  26; 6HR MAX TEMP:  34;

ELY            FLURRIES  32  23  69 NE9G16    30.21F WCI  24
HIBBING        CLOUDY    35  23  61 N13       30.23S WCI  26
EVELETH        CLOUDY    32  23  69 NW9       30.23S WCI  24
DULUTH HARBOR  CLOUDY    37  27  65 NW9       30.24S
TWO HARBORS    CLOUDY    36  25  64 N8        30.18S
SILVER BAY     SUNNY     36  28  75 NW7       30.17S
GRAND MARAIS     N/A     33  29  85 NE8       30.19F WCI  26
G MARAIS ARPRT LGT SNOW  28  25  86 NE7       30.15S WCI  21
$$
MNZ029>031-032-039>041-046>048-054>057-064-171900-
   West Central Minnesota

CITY           SKY/WX    TMP DP  RH WIND       PRES   REMARKS
FERGUS FALLS   SUNNY     39   7  26 N9        30.28S
WHEATON        SUNNY     41  19  42 NW6       30.33F
MORRIS         MOSUNNY   37  19  48 N7        30.30S
ALEXANDRIA     SUNNY     35  18  49 N6        30.28S WCI  30
ELBOW LAKE     FAIR      37  17  44 N5        30.29F
WADENA         SUNNY     36  12  38 N9        30.26S
GLENWOOD       SUNNY     36  21  55 N8        30.29R
APPLETON       MOSUNNY   36  23  60 NW8       30.32S
BENSON         SUNNY     36  23  60 N5        30.31S
ORTONVILLE     MOSUNNY   36  19  51 N8        30.32F
MADISON        MOSUNNY   37  25  60 N8        30.32F
WILLMAR        FAIR      36  21  55 NW8       30.31S
$$
MNZ033>034-036-042>043-049>051-058-059-171900-
   Central Minnesota

CITY           SKY/WX    TMP DP  RH WIND       PRES   REMARKS
ST CLOUD       SUNNY     37  22  54 N8        30.26F
6HR MIN TEMP:  28; 6HR MAX TEMP:  37;

SAUK CENTRE    FAIR      35  21  57 N8        30.28S WCI  28
PAYNESVILLE    SUNNY     33  23  65 NW5       30.29S WCI  29
AITKIN         MOSUNNY   41  23  48 N9        30.23S
PINE RIVER     MOSUNNY   37  21  52 N12       30.27F
BRAINERD       SUNNY     41  21  44 NW14      30.25F
STAPLES        SUNNY     37  19  48 N6        30.25F
LONG PRAIRIE   FAIR      34  21  60 N8        30.27S WCI  27
LITTLE FALLS   SUNNY     36  19  51 NW6       30.26S
LITCHFIELD     SUNNY     34  27  75 W6        30.29S WCI  29
BUFFALO        SUNNY     37  25  62 N7        30.29R
MAPLE LAKE     SUNNY     37  26  64 N7        30.28S
$$
MNZ037-044-045-052-053-171900-
   East Central Minnesota

CITY           SKY/WX    TMP DP  RH WIND       PRES   REMARKS
PRINCETON      SUNNY     37  25  60 N8        30.26F
MORA           PTSUNNY   37  23  56 CALM      30.27S
CAMBRIDGE      PTSUNNY   36  25  64 N6        30.24F
RUSH CITY      CLOUDY    35  25  65 NW6       30.26S WCI  30
MOOSE LAKE     CLOUDY    34  25  69 N6        30.23S WCI  29
HINCKLEY       CLOUDY    36  27  69 NW13      30.25S
MCGREGOR       PTSUNNY   37  27  65 N7        30.24S
$$
MNZ071>073-080-081-089-090-097-098-171900-
   Southwest Minnesota

CITY           SKY/WX    TMP DP  RH WIND       PRES   REMARKS
MONTEVIDEO     MOSUNNY   39  27  60 N10       30.33F
GRANITE FALLS  SUNNY     34  23  65 W9        30.34S WCI  26
CANBY          MOSUNNY   34  21  59 NW7       30.34S WCI  28
MARSHALL       MOSUNNY   34  21  60 NW9       30.32S WCI  26
REDWOOD FALLS  SUNNY     32  25  75 W8        30.31F WCI  25
OLIVIA         SUNNY     32  25  74 NW8       30.30F WCI  25
PIPESTONE      SUNNY     34  21  60 NE12      30.29S WCI  25
WINDOM         MOSUNNY   36  28  75 N13       30.30S
WORTHINGTON    PTSUNNY   36  23  60 N14       30.31F
JACKSON        PTSUNNY   36  30  80 NW13G18   30.28F
TRACY          SUNNY     32  25  75 CALM      30.31S
SLAYTON        MOSUNNY   32  27  81 N12       30.30S WCI  23
$$
MNZ065>067-074>077-082>085-091>093-171900-
   South Central Minnesota

CITY           SKY/WX    TMP DP  RH WIND       PRES   REMARKS
MANKATO        CLOUDY    34  27  75 NW14      30.29S WCI  24
NEW ULM        SUNNY     36  30  80 NW12G17   30.29S
ST JAMES       PTSUNNY   36  28  75 NW10      30.31S
FAIRMONT       CLOUDY    34  27  75 NW13      30.30F WCI  25
GLENCOE        PTSUNNY   35  26  70 NW8       30.28F WCI  28
FARIBAULT      CLOUDY    36  28  75 NW9       30.27S
OWATONNA       CLOUDY    34  28  80 NW13      30.26S WCI  25
WASECA         CLOUDY    34  30  86 NW12      30.28F WCI  25
ALBERT LEA     CLOUDY    34  30  86 W7        30.26S WCI  28
$$
MNZ078>079-086>088-094>096-171900-
   Southeast Minnesota

CITY           SKY/WX    TMP DP  RH WIND       PRES   REMARKS
ROCHESTER      CLOUDY    33  29  85 NW16      30.23F WCI  23
6HR MIN TEMP:  31; 6HR MAX TEMP:  34;

RED WING       CLOUDY    37  30  75 NW8       30.25S
STANTON        CLOUDY    36  29  75 NW12      30.25S
DODGE CENTER   CLOUDY    36  32  87 NW14      30.24S
WINONA         CLOUDY    37  32  81 N13       30.24S
AUSTIN         CLOUDY    32  28  86 NW9       30.25S WCI  24
PRESTON        CLOUDY    36  31  82 NW15      30.24R
$$
ABBREVIATIONS USED IN REMARKS
   TC - TEMPERATURES IN CELSIUS
  WCI - WIND CHILL INDEX
   HX - HEAT INDEX
  VSB - VISIBILITY
$$


USA.gov is the U.S. government's official web portal to all federal, state and local government web resources and services.